Preview of NWS' New Version of Forecast
This preview is not operational and should not be used for support decisions.
Latest weather observations around

Santa Monica, Santa Monica Municipal Airport (KSMO)

Using English Units (Switch to International System of Units)
Date/ Time (PST) Wind (mph) Vis. (mi) Weather Sky Cond. Temp (°F) Rel. Humidity Wind Chill (°F) Heat Index (°F) Pressure Precip. (in)
Air Dwpt 6 hour Altimeter (inHg) Sea level (inHg) 1 hr 3 hr 6 hr
Max Min
Jan 24 00:51 NNE 5 10 Clear CLR 54 41     61%     30.14 30.13      
Jan 23 23:51 NNE 3 10 Clear CLR 54 43     66%     30.15 30.15      
Jan 23 22:51 NNE 3 10 Clear CLR 55 44     66%     30.16 30.16      
Jan 23 21:51 Calm 10 Clear CLR 56 43     62%     30.17 30.16      
Jan 23 20:51 NE 3 10 Clear CLR 56 44     64%     30.18 30.17      
Jan 23 19:51 Calm 10 Clear CLR 57 47     69%     30.18 30.18      
Jan 23 18:51 Calm 10 Clear CLR 60 47     62%     30.18 30.17      
Jan 23 17:51 Calm 10 Clear CLR 61 46     58%     30.17 30.17      
Jan 23 16:51 WSW 6 10 Clear CLR 63 41     45%     30.18 30.17      
Jan 23 15:51 SW 6 10 Clear CLR 64 41     43%     30.19 30.19      
Jan 23 14:51 WSW 8 10 Clear CLR 65 37     36%     30.21 30.21      
Jan 23 13:51 W 10 10 Clear CLR 65 31     28%     30.23 30.23      
Jan 23 12:51 7 10 Clear CLR 66 32     28%     30.27 30.27      
Jan 23 11:51 SW 8 10 Clear CLR 66 25     21%     30.31 30.3      
Jan 23 10:51 S 6 10 Clear CLR 67 15     13%     30.34 30.33      
Jan 23 09:51 Calm 10 Clear CLR 66 17     15%     30.35 30.35      
Jan 23 08:51 Calm 10 Clear CLR 62 21     20%     30.35 30.35      
Jan 23 07:51 NE 3 10 Clear CLR 52 27     38%     30.34 30.33      
Jan 23 06:51 E 5 10 Clear CLR 50 21     32%     30.33 30.33      
Jan 23 05:51 NE 5 10 Clear CLR 51 21     30%     30.33 30.33      
Jan 23 04:51 E 5 10 Clear CLR 50 23     34%     30.32 30.32      
Jan 23 03:51 ENE 5 10 Clear CLR 50 21     32%     30.31 30.31      
Jan 23 02:51 NE 3 10 Clear CLR 53 16     23%     30.32 30.32      
Jan 23 01:51 NNE 3 10 Clear CLR 54 16     22%     30.32 30.32      
Jan 23 00:51 NNE 5 10 Clear CLR 55 15     20%     30.33 30.33      
Jan 22 23:51 NE 5 10 Clear CLR 57 11     16%     30.33 30.32      
Jan 22 22:51 NNE 6 10 Clear CLR 59 10     14%     30.33 30.32      
Jan 22 21:51 3 10 Clear CLR 61 8     12%     30.32 30.31      
Jan 22 20:51 5 10 Clear CLR 62 8     12%     30.31 30.3      
Jan 22 19:51 NNE 6 10 Clear CLR 63 8     11%     30.29 30.29      
Jan 22 18:51 NNE 7 10 Clear CLR 64 8     11%     30.27 30.27      
Jan 22 17:51 5 10 Clear CLR 65 16     15%     30.26 30.26      
Jan 22 16:51 S 8 10 Clear CLR 65 29     26%     30.26 30.25      
Jan 22 15:51 SSW 8 10 Clear CLR 67 28     23%     30.25 30.24      
Jan 22 14:51 S 10 10 Clear CLR 66 28     24%     30.24 30.24      
Jan 22 13:51 S 11 10 Clear CLR 67 27     22%     30.24 30.23      
Jan 22 12:51 SSE 6 10 Partly Cloudy SCT250 68 18     15%     30.25 30.24      
Jan 22 11:51 SSW 9 10 Partly Cloudy SCT250 67 22     18%     30.25 30.25      
Jan 22 10:51 6 10 Clear CLR 71 14     11%   68 30.25 30.24      
Jan 22 09:51 N 9 10 Clear CLR 66 18     16%     30.26 30.25      
Jan 22 08:51 N 8 10 Clear CLR 62 20     20%     30.24 30.24      
Jan 22 07:51 N 13 10 Clear CLR 59 23     25%     30.22 30.22      
Jan 22 06:51 N 11 10 Clear CLR 57 25     29%     30.19 30.19      
Jan 22 05:51 N 14 10 Clear CLR 58 26     29%     30.17 30.16      
Jan 22 04:51 N 10 10 Clear CLR 57 29     34%     30.15 30.15      
Jan 22 03:51 N 14 10 Clear CLR 56 32     40%     30.15 30.15      
Jan 22 02:51 NNW 10 10 Clear CLR 57 33     40%     30.17 30.16      
Jan 22 01:51 NNW 8 10 Clear CLR 57 32     39%     30.16 30.16      
Jan 22 00:51 N 10 10 Clear CLR 57 33     40%     30.13 30.13      
Jan 21 23:51 N 14 10 Clear CLR 58 31     36%     30.14 30.13      
Jan 21 22:51 N 8 10 Clear CLR 57 32     39%     30.14 30.14      
Jan 21 21:51 N 9 10 Clear CLR 60 31     33%     30.12 30.11      
Jan 21 20:51 6 10 Clear CLR 58 31     36%     30.11 30.1      
Jan 21 19:51 NNW 8 10 Clear CLR 59 31     34%     30.09 30.08      
Jan 21 18:51 N 11 10 Clear CLR 59 30     33%     30.07 30.07      
Jan 21 17:51 N 15 10 Clear CLR 60 31     33%     30.05 30.05      
Jan 21 17:27 N 16 10 Mostly Clear FEW030 60 31     33%     30.04        
Jan 21 16:51 NE 8 10 Partly Cloudy SCT048 63 30     29%     30.05 30.05      
Jan 21 15:51 5 10 Mostly Clear FEW040 64 44     48%     30.04 30.03      
Jan 21 14:51 W 9 10 Clear CLR 65 40     40%     30.03 30.03      
Jan 21 13:51 SW 10 10 Clear CLR 64 35     34%     30.05 30.04      
Jan 21 13:24 W 9 10 Clear CLR 63 33     33%     30.07        
Jan 21 12:51 6 10 Clear CLR 66 30     26%     30.08 30.08      
Jan 21 11:51 N 9 10 Clear CLR 65 29     26%     30.12 30.11      
Jan 21 10:51 NW 10 10 Mostly Clear FEW040 64 30     28%     30.14 30.14      
Jan 21 09:51 N 9 10 Clear CLR 62 30     30%     30.14 30.14      
Jan 21 08:51 N 9 10 Clear CLR 59 31     34%     30.13 30.13      
Jan 21 07:51 N 8 10 Clear CLR 57 32     39%     30.1 30.09      
Jan 21 06:51 6 10 Clear CLR 56 34     43%     30.07 30.07      
Jan 21 05:51 5 10 Clear CLR 57 36     45%     30.06 30.05      
Jan 21 04:51 WNW 5 10 Mostly Clear FEW048 56 41     57%     30.04 30.04      
Jan 21 03:51 Calm 10 Clear CLR 57 45     64%     30.02 30.01      
Jan 21 03:34 WNW 5 10 Partly Cloudy SCT028 58 45     62%     30.01        
Jan 21 03:21 3 10 Mostly Cloudy BKN028 59 46     62%     30.02        
Jan 21 02:51 WSW 8 10 Clear CLR 59 47     64%     30.01 30.01      
Jan 21 01:51 W 14 10 Clear CLR 60 49     67%     30.01 30      
May 15 07:51 SE 3 10 Mostly Cloudy BKN015 59 52     78%     30.04 30.04      
May 13 01:51 3 10 Cloudy FEW025 BKN032 OVC050 59 51     75%     30.01 30.01      
Notice The following observation data may not be complete
May 12 05:04   6 Light Rain and Fog/Mist FEW008 OVC020          %         0    
May 12 00:51 E 6 10 Cloudy BKN028 OVC044 59 53     81%     29.88 29.88      
May 11 18:51 SSW 6 10 Cloudy OVC026 60 54     80%     29.82 29.82      
May 11 12:51 3 10 Cloudy OVC023 61 53     75%     29.87 29.87      
Jun 11 14:51 WSW 11 10 Mostly Clear FEW022 67 54     63%     29.92 29.92      
Jun 11 03:51 SSW 3 10 Cloudy OVC013 62 57     84%     29.86 29.85      
Jun 10 14:51 WSW 8 10 Mostly Cloudy BKN016 67 58     73%     29.89 29.88      
Jun 09 19:51 SW 10 10 Partly Cloudy SCT009 64 60     87%     29.9 29.89      
Notice The following observation data may not be complete
Jun 09 09:51   10 Clear CLR          %              
Jun 09 03:42 Calm 10 Partly Cloudy SCT013 59 56     90%     29.94        
Jun 08 11:29 WSW 7 9 Cloudy BKN008 OVC013 62 59     90%     30.04        
Jun 08 10:48 WSW 7 10 Cloudy BKN008 OVC015 63 61     94%     30.03   0    
Jun 07 23:47 SW 7 4 Light Rain and Fog/Mist OVC003 61 61     100%     29.99   0    
Jun 07 09:51 SW 6 8 Cloudy FEW008 OVC010 63 59     87%     29.96 29.96